User: anonymous   Login
Location: Unspecified
(0.0000°N, 0.0000°E)
Time: 04:51:31
(UTC+00:00)
Language:

SPROUT - Orbit

View from above orbital plane
View from above orbital plane
View from above satellite
View from above satellite

Ground track
Ground track

The orbit data is extracted from the following two-line orbital elements,

1 39770U 14029E   18019.85571242  .00000629  00000-0  76993-4 0  9990
2 39770  97.8756 122.2162 0008541 346.3219  13.7764 14.86635982198325
Epoch (UTC): 19 January 2018 20:32:13
Eccentricity: 0.0008541
inclination: 97.8756°
perigee height: 602 km
apogee height: 614 km
right ascension of ascending node: 122.2162°
argument of perigee: 346.3219°
revolutions per day: 14.86635982
mean anomaly at epoch: 13.7764°
orbit number at epoch: 19832

The dashed part of the orbit path shows where the satellite is in the earth's shadow,  

DLR